Total_Precipitation_Accumulation
0.54 0.63 0.54 0.37 0.26 0.21 0.18 0.21 0.18 0.12 0.10 0.18 0.17 0.10 0.04 0.02 0.04 0.04 0.03 0.03 0.04 0.04 0.04 0.05 0.10 0.16 0.21 0.24 0.29 0.38 0.55 0.60 0.69 0.77 0.86 0.92 0.86 0.87 0.88 0.83 0.80 0.76 0.78 0.80
0.66 0.53 0.29 0.22 0.18 0.19 0.23 0.26 0.20 0.14 0.12 0.19 0.18 0.10 0.04 0.02 0.03 0.03 0.03 0.03 0.04 0.04 0.04 0.05 0.08 0.13 0.19 0.23 0.25 0.31 0.47 0.58 0.64 0.69 0.72 0.76 0.78 0.81 0.84 0.80 0.83 0.83 0.80 0.85
0.53 0.32 0.17 0.24 0.28 0.25 0.22 0.20 0.17 0.16 0.17 0.20 0.20 0.13 0.04 0.02 0.02 0.03 0.04 0.05 0.05 0.04 0.04 0.05 0.06 0.09 0.15 0.21 0.22 0.27 0.39 0.53 0.61 0.68 0.82 0.87 0.93 1.01 1.00 0.92 0.84 0.82 0.84 0.84
0.39 0.21 0.20 0.28 0.33 0.29 0.23 0.11 0.12 0.18 0.30 0.31 0.22 0.24 0.07 0.03 0.04 0.04 0.04 0.04 0.04 0.04 0.04 0.05 0.05 0.07 0.12 0.17 0.20 0.26 0.39 0.53 0.60 0.69 0.80 0.86 0.86 0.90 0.91 0.84 0.80 0.76 0.78 0.83
0.45 0.24 0.24 0.28 0.26 0.26 0.20 0.10 0.13 0.20 0.33 0.39 0.25 0.30 0.11 0.05 0.06 0.07 0.08 0.07 0.06 0.05 0.04 0.04 0.05 0.06 0.10 0.17 0.22 0.26 0.36 0.53 0.64 0.71 0.74 0.79 0.78 0.74 0.79 0.89 0.89 0.85 0.82 0.82
0.37 0.22 0.27 0.24 0.18 0.24 0.25 0.24 0.28 0.32 0.55 0.71 0.25 0.23 0.13 0.10 0.11 0.10 0.09 0.09 0.09 0.08 0.06 0.05 0.05 0.06 0.09 0.19 0.26 0.32 0.36 0.47 0.64 0.76 0.78 0.76 0.76 0.75 0.80 0.89 0.94 0.95 0.91 0.85
0.55 0.32 0.24 0.23 0.32 0.38 0.48 0.70 1.08 1.08 1.05 0.59 0.10 0.15 0.16 0.09 0.08 0.09 0.10 0.09 0.08 0.09 0.09 0.08 0.08 0.09 0.10 0.17 0.26 0.33 0.39 0.42 0.54 0.73 0.80 0.77 0.76 0.74 0.73 0.79 0.86 0.89 0.93 0.92
0.63 0.44 0.27 0.24 0.32 0.45 0.55 0.73 0.95 0.82 0.47 0.15 0.05 0.10 0.12 0.06 0.05 0.05 0.07 0.08 0.06 0.06 0.07 0.09 0.10 0.12 0.13 0.16 0.24 0.33 0.42 0.45 0.50 0.62 0.75 0.79 0.82 0.80 0.75 0.75 0.81 0.84 0.84 0.85
0.63 0.39 0.19 0.17 0.18 0.25 0.42 0.54 0.49 0.62 0.41 0.22 0.11 0.07 0.08 0.04 0.03 0.03 0.03 0.06 0.09 0.08 0.09 0.11 0.12 0.14 0.15 0.17 0.23 0.29 0.38 0.50 0.53 0.55 0.69 0.79 0.85 0.86 0.78 0.74 0.77 0.82 0.83 0.85
0.68 0.54 0.24 0.20 0.26 0.30 0.34 0.39 0.60 0.96 0.82 0.36 0.13 0.08 0.11 0.08 0.05 0.04 0.03 0.04 0.07 0.09 0.09 0.11 0.15 0.16 0.15 0.17 0.22 0.27 0.31 0.43 0.58 0.58 0.64 0.79 0.85 0.89 0.88 0.82 0.78 0.76 0.77 0.83
0.66 0.76 0.44 0.36 0.46 0.43 0.40 0.52 0.73 0.88 0.73 0.48 0.23 0.14 0.15 0.09 0.06 0.06 0.05 0.05 0.06 0.07 0.09 0.11 0.16 0.18 0.17 0.16 0.21 0.29 0.33 0.41 0.55 0.65 0.65 0.71 0.82 0.87 0.93 0.92 0.84 0.78 0.77 0.78
0.63 0.92 0.66 0.36 0.33 0.32 0.39 0.47 0.59 0.85 0.70 0.42 0.33 0.17 0.10 0.08 0.06 0.06 0.07 0.05 0.05 0.07 0.09 0.12 0.20 0.21 0.20 0.20 0.23 0.30 0.30 0.35 0.46 0.62 0.72 0.70 0.75 0.87 0.90 0.84 0.81 0.84 0.81 0.80
1.02 1.40 1.16 0.76 0.60 0.52 0.62 0.55 0.52 0.56 0.58 0.46 0.36 0.16 0.08 0.06 0.05 0.05 0.05 0.06 0.05 0.05 0.07 0.10 0.17 0.20 0.21 0.22 0.25 0.34 0.32 0.29 0.34 0.52 0.67 0.76 0.79 0.85 0.91 0.86 0.78 0.83 0.87 0.85
1.47 1.64 1.06 0.83 0.63 0.56 0.57 0.47 0.46 0.65 0.80 0.43 0.18 0.12 0.09 0.07 0.06 0.06 0.06 0.07 0.07 0.05 0.06 0.07 0.10 0.13 0.17 0.17 0.22 0.28 0.32 0.29 0.26 0.39 0.55 0.66 0.76 0.83 0.87 0.89 0.87 0.85 0.85 0.87
1.58 1.54 0.62 0.31 0.24 0.30 0.34 0.29 0.32 0.47 0.47 0.37 0.13 0.09 0.11 0.11 0.10 0.09 0.08 0.08 0.08 0.07 0.07 0.07 0.06 0.09 0.11 0.13 0.18 0.22 0.27 0.29 0.28 0.29 0.40 0.56 0.66 0.76 0.84 0.89 0.91 0.94 0.94 0.88
1.49 1.44 0.68 0.36 0.19 0.26 0.28 0.19 0.19 0.21 0.20 0.19 0.10 0.08 0.06 0.06 0.08 0.08 0.08 0.09 0.10 0.10 0.09 0.07 0.06 0.07 0.08 0.11 0.14 0.19 0.23 0.25 0.27 0.30 0.31 0.43 0.59 0.72 0.80 0.87 0.95 0.97 0.98 0.98
1.37 1.37 1.12 0.65 0.27 0.51 0.56 0.24 0.18 0.18 0.17 0.17 0.19 0.15 0.08 0.05 0.06 0.09 0.10 0.12 0.13 0.12 0.10 0.09 0.07 0.07 0.08 0.09 0.11 0.17 0.21 0.22 0.22 0.22 0.25 0.32 0.44 0.62 0.75 0.82 0.90 1.02 1.03 1.01
0.99 1.17 1.46 1.02 0.74 1.03 0.48 0.18 0.16 0.19 0.22 0.20 0.20 0.16 0.11 0.07 0.06 0.08 0.13 0.15 0.13 0.12 0.11 0.10 0.08 0.08 0.09 0.08 0.09 0.14 0.18 0.20 0.22 0.20 0.19 0.23 0.30 0.45 0.61 0.77 0.87 0.97 1.07 1.07
0.52 1.01 1.64 1.42 1.07 0.61 0.22 0.16 0.23 0.26 0.28 0.22 0.18 0.13 0.09 0.06 0.05 0.07 0.09 0.11 0.12 0.12 0.11 0.10 0.09 0.10 0.09 0.07 0.08 0.12 0.14 0.17 0.18 0.18 0.18 0.18 0.21 0.31 0.46 0.61 0.75 0.85 0.97 1.01
0.53 0.96 1.73 1.58 1.17 0.59 0.25 0.15 0.16 0.22 0.36 0.21 0.17 0.16 0.13 0.11 0.13 0.11 0.10 0.10 0.10 0.10 0.10 0.10 0.10 0.11 0.09 0.07 0.09 0.12 0.12 0.14 0.16 0.16 0.16 0.16 0.18 0.23 0.34 0.47 0.61 0.77 0.89 0.95
0.86 1.33 1.59 1.23 1.00 0.48 0.23 0.16 0.16 0.38 0.45 0.23 0.20 0.19 0.17 0.18 0.17 0.13 0.10 0.10 0.10 0.10 0.10 0.11 0.12 0.11 0.09 0.08 0.12 0.15 0.13 0.13 0.16 0.17 0.16 0.14 0.15 0.19 0.27 0.42 0.55 0.73 0.85 0.95
0.67 0.90 0.87 0.79 0.94 0.54 0.24 0.21 0.37 0.45 0.27 0.23 0.19 0.18 0.17 0.15 0.12 0.10 0.09 0.10 0.10 0.10 0.10 0.13 0.14 0.12 0.11 0.11 0.14 0.18 0.16 0.16 0.17 0.16 0.16 0.15 0.14 0.17 0.25 0.40 0.54 0.67 0.83 0.96
0.46 0.60 0.63 0.56 0.48 0.32 0.27 0.30 0.32 0.28 0.25 0.22 0.19 0.16 0.15 0.14 0.13 0.11 0.09 0.10 0.10 0.11 0.12 0.14 0.16 0.15 0.14 0.15 0.18 0.21 0.20 0.20 0.18 0.16 0.16 0.17 0.17 0.19 0.25 0.36 0.51 0.71 0.82 0.93
0.32 0.30 0.41 0.40 0.27 0.20 0.19 0.21 0.22 0.23 0.22 0.19 0.17 0.16 0.14 0.14 0.12 0.11 0.10 0.11 0.12 0.14 0.14 0.14 0.15 0.16 0.18 0.19 0.21 0.22 0.23 0.23 0.19 0.18 0.17 0.17 0.20 0.24 0.27 0.35 0.46 0.66 0.82 0.93
0.29 0.28 0.31 0.33 0.24 0.19 0.16 0.14 0.14 0.15 0.15 0.14 0.13 0.14 0.14 0.13 0.11 0.10 0.10 0.11 0.13 0.14 0.13 0.13 0.14 0.16 0.20 0.24 0.23 0.22 0.24 0.25 0.22 0.20 0.19 0.20 0.24 0.28 0.32 0.39 0.47 0.59 0.71 0.93
0.19 0.22 0.30 0.31 0.23 0.24 0.18 0.12 0.10 0.10 0.11 0.12 0.11 0.11 0.11 0.11 0.10 0.08 0.09 0.11 0.13 0.14 0.11 0.12 0.13 0.14 0.18 0.23 0.24 0.23 0.25 0.26 0.25 0.24 0.23 0.24 0.29 0.30 0.32 0.41 0.52 0.62 0.70 0.80